Weather History for KDMO - November, 2012

Change the Weather History Date:

Tuesday, November 6, 2012

  Actual Average Record
Temperature  
Mean Temperature 50 °F 51 °F  
Max Temperature 58 °F 61 °F - ()
Min Temperature 42 °F 42 °F - ()
Degree Days  
Heating Degree Days 15 14  
Month to date heating degree days 96 79  
Since 1 July heating degree days 455 370  
Cooling Degree Days 0 0  
Month to date cooling degree days 0 0  
Year to date cooling degree days 2107 1487  
Moisture  
Dew Point 40 °F    
Average Humidity 73    
Maximum Humidity 100    
Minimum Humidity 46    
Precipitation  
Precipitation 0.00 in 0.10 in - ()
Month to date precipitation 0.18 0.67  
Year to date precipitation 28.10 36.36  
Sea Level Pressure  
Sea Level Pressure 30.04 in    
Wind  
Wind Speed 8 mph (West)    
Max Wind Speed 20 mph    
Max Gust Speed 30 mph    
Visibility 7 miles    
Events      
T = Trace of Precipitation, MM = Missing Value Source: NWS Daily Summary

Daily Weather History Graph

Daily Weather History Graph

Search for Another Location

Airport or City:

Trip Planner

Search our weather history database for the weather conditions in past years. The results will help you decide how hot, cold, wet, or windy it might be!

Date:

Astronomy

Nov. 06, 2012 Rise Set
Actual Time 6:45 AM CST 5:06 PM CST
Civil Twilight 6:17 AM CST 5:34 PM CST
Nautical Twilight 5:46 AM CST 6:06 PM CST
Astronomical Twilight 5:14 AM CST 6:37 PM CST
Moon 11:45 PM CST (11/6) 12:38 PM CST (11/6)
Length of Visible Light 11h 16m
Length of Day
10h 21m
Waning Gibbous, 53% of the Moon is Illuminated
Nov 6
Waning Gibbous
Nov 6
Last Quarter
Nov 13
New
Nov 20
First Quarter
Nov 28
Full

Hourly Weather History & Observations

Time (CST) Temp. Windchill Dew Point Humidity Pressure Visibility Wind Dir Wind Speed Gust Speed Precip Events Conditions
12:03 AM 44.6 °F 43.1 °F 42.8 °F 93% 30.08 in 2.0 mi NNE 3.5 mph - N/A   Overcast
12:53 AM 44.1 °F 42.5 °F 42.1 °F 93% 30.09 in 2.5 mi North 3.5 mph - N/A   Overcast
1:00 AM 44.6 °F - 42.8 °F 93% 30.08 in 3.0 mi Calm Calm - N/A   Overcast
1:53 AM 44.1 °F - 42.1 °F 93% 30.08 in 4.0 mi Calm Calm - N/A   Overcast
2:22 AM 44.6 °F - 42.8 °F 93% 30.07 in 2.5 mi Calm Calm - N/A   Overcast
2:53 AM 44.1 °F - 42.1 °F 93% 30.08 in 3.0 mi Calm Calm - N/A   Overcast
3:33 AM 44.6 °F 43.1 °F 42.8 °F 93% 30.06 in 4.0 mi NW 3.5 mph - N/A   Overcast
3:40 AM 44.6 °F 43.1 °F 42.8 °F 93% 30.06 in 4.0 mi WNW 3.5 mph - N/A   Overcast
3:53 AM 44.1 °F 41.5 °F 42.1 °F 93% 30.06 in 4.0 mi WNW 4.6 mph - N/A   Overcast
4:07 AM 42.8 °F 40.1 °F 42.8 °F 100% 30.05 in 4.0 mi West 4.6 mph - N/A   Overcast
4:53 AM 43.0 °F 38.8 °F 42.1 °F 97% 30.07 in 4.0 mi West 6.9 mph - N/A   Overcast
5:02 AM 42.8 °F 38.6 °F 41.0 °F 93% 30.05 in 6.0 mi West 6.9 mph - N/A   Overcast
5:53 AM 43.0 °F 40.3 °F 41.0 °F 93% 30.06 in 6.0 mi West 4.6 mph - N/A   Overcast
6:53 AM 43.0 °F 38.8 °F 41.0 °F 93% 30.06 in 6.0 mi WSW 6.9 mph - N/A   Overcast
7:36 AM 42.8 °F 38.6 °F 39.2 °F 87% 30.03 in 8.0 mi WSW 6.9 mph - N/A   Overcast
7:53 AM 43.0 °F 38.8 °F 39.9 °F 89% 30.06 in 8.0 mi WSW 6.9 mph - N/A   Overcast
8:18 AM 42.8 °F 38.6 °F 39.2 °F 87% 30.06 in 7.0 mi WSW 6.9 mph - N/A   Overcast
8:39 AM 42.8 °F 38.6 °F 39.2 °F 87% 30.05 in 7.0 mi SW 6.9 mph - N/A   Overcast
8:53 AM 43.0 °F 37.7 °F 39.9 °F 89% 30.06 in 9.0 mi SW 9.2 mph - N/A   Overcast
9:53 AM 44.1 °F 39.5 °F 39.9 °F 85% 30.06 in 6.0 mi WSW 8.1 mph - N/A   Overcast
10:53 AM 46.0 °F 41.0 °F 41.0 °F 83% 30.04 in 6.0 mi WSW 10.4 mph - N/A   Haze
11:25 AM 46.4 °F 43.5 °F 41.0 °F 81% 30.02 in 7.0 mi WSW 5.8 mph - N/A   Overcast
11:53 AM 48.9 °F - 42.1 °F 77% 30.01 in 9.0 mi West 9.2 mph - N/A   Overcast
12:53 PM 53.1 °F - 43.0 °F 69% 29.98 in 10.0 mi West 13.8 mph - N/A   Mostly Cloudy
1:06 PM 53.6 °F - 42.8 °F 67% 29.96 in 10.0 mi WNW 11.5 mph - N/A   Scattered Clouds
1:53 PM 55.9 °F - 42.1 °F 60% 29.95 in 10.0 mi WNW 12.7 mph 19.6 mph N/A   Clear
2:53 PM 55.9 °F - 41.0 °F 57% 29.96 in 10.0 mi NW 16.1 mph 19.6 mph N/A   Clear
3:53 PM 55.0 °F - 39.9 °F 57% 29.97 in 10.0 mi WNW 10.4 mph - N/A   Mostly Cloudy
4:53 PM 54.0 °F - 34.0 °F 47% 29.99 in 10.0 mi NW 13.8 mph - N/A   Mostly Cloudy
5:53 PM 50.0 °F - 35.1 °F 57% 30.01 in 10.0 mi NW 9.2 mph - N/A   Mostly Cloudy
6:53 PM 51.1 °F - 36.0 °F 56% 30.02 in 10.0 mi West 6.9 mph - N/A   Overcast
7:53 PM 51.1 °F - 34.0 °F 52% 30.02 in 10.0 mi West 5.8 mph - N/A   Overcast
8:53 PM 51.1 °F - 34.0 °F 52% 30.04 in 10.0 mi WNW 10.4 mph - N/A   Overcast
9:53 PM 50.0 °F - 34.0 °F 54% 30.04 in 10.0 mi NW 10.4 mph - N/A   Overcast
10:53 PM 50.0 °F - 34.0 °F 54% 30.03 in 10.0 mi WNW 8.1 mph - N/A   Overcast
11:53 PM 46.0 °F 41.4 °F 34.0 °F 63% 30.04 in 10.0 mi WNW 9.2 mph - N/A   Clear